CDT,Max TemperatureF,Mean TemperatureF,Min TemperatureF,Max Dew PointF,MeanDew PointF,Min DewpointF,Max Humidity, Mean Humidity, Min Humidity, Max Sea Level PressureIn, Mean Sea Level PressureIn, Min Sea Level PressureIn, Max VisibilityMiles, Mean VisibilityMiles, Min VisibilityMiles, Max Wind SpeedMPH, Mean Wind SpeedMPH, Max Gust SpeedMPH,PrecipitationIn, CloudCover, Events, WindDirDegrees
2011-10-1,71,56,41,43,36,28,87,53,20,30.31,30.25,30.17,10,10,10,14,7,20,0.00,0,,148
2011-10-2,84,68,51,43,39,37,62,40,19,30.19,30.14,30.10,10,10,10,16,8,20,0.00,0,,181
2011-10-3,84,68,53,45,39,34,67,38,16,30.18,30.15,30.11,10,10,10,16,7,21,0.00,0,,174
2011-10-4,89,72,55,48,43,39,55,38,21,30.14,30.08,30.00,10,10,10,20,9,26,0.00,0,,157
2011-10-5,89,76,64,52,45,34,59,37,17,30.06,30.02,29.97,10,10,10,22,10,29,0.00,0,,169
2011-10-6,84,70,55,46,43,39,67,40,20,30.02,29.97,29.90,10,10,10,28,14,38,0.00,0,,147
2011-10-7,84,76,69,63,56,46,56,49,40,29.90,29.86,29.81,10,10,10,29,21,41,0.00,2,,164
2011-10-8,82,74,66,63,60,55,88,61,39,30.12,30.02,29.90,10,10,4,21,13,30,0.00,3,Rain-Thunderstorm,181
2011-10-9,84,70,55,63,56,46,100,64,28,30.18,30.12,30.06,10,8,0,18,7,26,0.00,3,Fog-Rain,123
2011-10-10,71,66,59,61,56,52,88,72,56,30.06,29.98,29.90,10,10,7,15,10,24,0.01,2,Rain,162
2011-10-11,75,65,55,57,53,48,94,69,38,29.90,29.84,29.76,10,10,10,16,9,23,0.00,1,Rain,169
2011-10-12,69,63,57,61,57,54,94,84,56,29.76,29.72,29.68,10,10,7,18,7,25,0.02,5,Rain-Thunderstorm,111
2011-10-13,66,56,46,54,49,45,100,80,49,29.74,29.71,29.67,10,10,10,24,11,32,0.00,1,Rain-Thunderstorm,289
2011-10-14,59,52,46,48,45,41,93,79,55,29.90,29.80,29.72,10,10,7,25,13,37,0.00,5,Rain,291
2011-10-15,64,52,39,43,37,30,100,66,30,29.96,29.91,29.84,10,10,10,15,9,24,0.00,0,,269
2011-10-16,60,50,41,46,37,27,93,63,27,29.96,29.92,29.85,10,10,10,28,10,36,0.00,1,Rain,288
2011-10-17,60,46,33,37,31,27,87,59,27,29.97,29.93,29.90,10,10,10,26,11,36,0.00,0,,275
2011-10-18,51,43,35,37,31,25,87,64,37,30.07,30.01,29.92,10,10,10,29,15,36,0.00,2,,322
2011-10-19,46,37,28,36,31,25,93,77,66,30.12,30.08,30.06,10,10,3,18,12,24,0.00,5,Snow,335
2011-10-20,55,42,30,37,32,28,100,75,38,30.04,30.00,29.96,10,10,10,18,10,24,0.00,0,,317
2011-10-21,71,48,26,39,33,25,100,62,27,30.04,30.00,29.95,10,10,7,17,4,21,0.00,0,,246
2011-10-22,64,50,35,43,39,34,100,66,37,30.13,30.08,30.02,10,10,4,8,4,,0.00,1,,353
2011-10-23,73,60,44,50,45,39,93,71,36,29.96,29.87,29.79,10,10,10,25,11,33,0.00,2,Rain,248
2011-10-24,71,52,33,45,36,28,100,63,21,30.02,29.98,29.93,10,10,10,14,3,16,0.00,0,,252
2011-10-25,60,53,46,45,42,39,93,68,48,29.95,29.81,29.73,10,10,10,24,13,30,0.00,0,,28
2011-10-26,53,46,39,43,39,37,93,79,58,30.11,30.06,30.01,10,10,10,16,6,,0.00,4,,323
2011-10-27,55,40,26,36,28,21,100,67,26,30.08,30.06,30.04,10,10,10,12,5,20,0.00,1,,277
2011-10-28,59,46,33,34,25,19,76,49,23,30.09,30.05,30.01,10,10,10,25,9,33,0.00,2,,271
2011-10-29,57,40,23,30,23,18,86,50,21,30.06,29.96,29.84,10,10,10,16,5,24,0.00,1,,153
2011-10-30,53,48,42,41,34,27,81,60,40,29.98,29.86,29.75,10,10,10,25,12,33,0.00,7,,295
2011-10-31,60,43,26,36,29,27,100,65,27,30.02,29.96,29.88,10,10,10,13,6,18,0.00,0,,211